Home > Time Zones > World Clock > Weather > Norway > Alta > Past weeks

Flag for Norway Weather past 2 weeks in Alta, Norway

Now
41 °F

Quite cool.


Feels Like: 41 °F
Forecast: 32 / 44 °F
Wind: 2 mph from West

Location: Alta Lufthavn

Current Time: Sep 30, 2014 at 6:22:24 PM

Latest Report: Sep 30, 2014 at 5:00 PM


Visibility: N/A

Pressure: 30.30 "Hg

Humidity: 70%

Dew point: 31 °F

Location of AltaLocation

Historic Weather in Alta — Graph

°F

Alta temperature yesterday

Maximum temperature yesterday: 45 °F (at 6:00 PM)
Minimum temperature yesterday: 32 °F (at 6:00 AM)
Average temperature yesterday: 39 °F

Past Weeks' High & Low Weather Summary

 TemperatureHumidityPressure
High55 °F (Sep 17, 5:00 PM)95% (Sep 17, 6:00 AM)30.40 "Hg (Sep 17, 6:00 AM)
Low25 °F (Sep 20, 4:00 AM)40% (Sep 19, 2:00 PM)28.79 "Hg (Sep 27, 8:00 AM)
Average40 °F76%29.77 "Hg
* Reported Sep 15 5:00 PM — Sep 30 5:00 PM, Alta, Weather by CustomWeather, © 2014

Note: Actual official high and low records may vary slightly from our data, if they occured in-between our weather recording intervals... More about our weather records

Advertising

Alta weather history for previous 24 hours

 ConditionsComfort  
Time TempWeatherWind HumidityBarometerVisibility
5:00 PM
Sep 30
41 °FQuite cool.2 mph70%30.30 "HgN/A
4:00 PM42 °FQuite cool.6 mph64%30.30 "HgN/A
3:00 PM44 °FQuite cool.6 mph66%30.29 "HgN/A
2:00 PM44 °FQuite cool.7 mph64%30.27 "HgN/A
1:00 PM43 °FQuite cool.7 mph69%30.26 "HgN/A
12:00 PM43 °FQuite cool.9 mph69%30.23 "HgN/A
11:00 AM39 °FChilly.7 mph82%30.21 "HgN/A
10:00 AM40 °FQuite cool.8 mph77%30.19 "HgN/A
9:00 AM41 °FQuite cool.7 mph73%30.16 "HgN/A
8:00 AM40 °FQuite cool.9 mph76%30.15 "HgN/A
7:00 AM40 °FQuite cool.8 mph69%30.12 "HgN/A
6:00 AM40 °FChilly.7 mph78%30.09 "HgN/A
5:00 AM39 °FChilly.6 mph79%30.08 "HgN/A
4:00 AM39 °FChilly.3 mph85%30.05 "HgN/A
3:00 AM42 °FQuite cool.5 mph67%30.03 "HgN/A
2:00 AM42 °FQuite cool.5 mph70%30.01 "HgN/A
1:00 AM42 °FQuite cool.9 mph72%29.98 "HgN/A
12:00 AM42 °FQuite cool.10 mph71%29.94 "HgN/A
11:00 PM
Sep 29
41 °FQuite cool.5 mph81%29.90 "HgN/A
10:00 PM42 °FQuite cool.6 mph82%29.86 "HgN/A
9:00 PM43 °FQuite cool.7 mph83%29.82 "HgN/A
8:00 PM44 °FQuite cool.9 mph80%29.78 "HgN/A
7:00 PM44 °FQuite cool.7 mph79%29.74 "HgN/A
6:00 PM45 °FCool.6 mph75%29.70 "HgN/A
Weather by CustomWeather, © 2014

See weather overviewHow to use our weather pages